BEIDOU-3S IGSO-1S

Last updated on Fri Dec 19 2025 00:02:51 GMT+0000 (Coordinated Universal Time)

1 40549U 15019A 25352.66382956 -.00000183 00000+0 00000+0 0 9991 2 40549 49.5406 297.6414 0036313 194.2599 288.9946 1.00291608 39263
UTC large
Height (km)
Speed (km/s)
/
Latitude / Longitude
Inclination (degrees)
Orbital Period (minutes)
Azimuth
Elevation
Range (km)
Doppler Factor

Next 0 passes for location: London (51.5072 / 0.1276)

Sorry there are no passes over London.